sat.trackr.live / text

‹ back to catalog

UNKNOWN

NORAD 81123

UNKNOWN UNKNOWN UNKNOWN

§ Identity

Operator
Country
Launch date
Launch site
Launch vehicle
Mass (kg)
RCS (m²)

External: N2YO · Heavens-Above

§ Orbital elements

Epoch: 2026-09-13T02:01:26.409216Z

Period
104.18 min
Inclination
99.9688°
Eccentricity
0.0003759
Mean motion
13.82181451 rev/d
Perigee alt
953.4 km
Apogee alt
958.9 km
Semi-major
7,334.3 km
B*
7.4176e-4
RAAN
358.0522°
Arg perigee
99.1342°
Mean anomaly
261.0234°
Rev number
64,417

§ Raw data

UNKNOWN1 81123U          26256.08433344  .00000750  00000+0  74176-3 0  99942 81123  99.9688 358.0522 0003759  99.1342 261.0234 13.82181451644177

JSON: /api/v1/satellites/81123 · /tle

For live sub-satellite position, see the globe view (requires WebGL).

§ Visibility from observer

Set your observer location to see the next 7 days of passes ≥ 10°. The values pass through the URL so the page stays shareable.

No JS? Fill the form by hand. The geolocation button needs JavaScript.